Starlink 5352

operational
NORAD ID: 56426 Int'l Des: 2023-061 Owner: SPXS Country: US Constellation: starlink
LEOCIRCULAR

Über Starlink 5352

Beschreibung wird geladen...

Live-Position

3D-Globus wird geladen...

Nächste Überflüge

Höhenverlauf

Altitude vs Time

uPlot chart will show altitude changes over time

Zweizeiliger Elementsatz

1 56426U 23061BE 25353.15864575 .00000124 00000-0 24268-4 0 9997
2 56426 43.0044 249.6325 0000693 158.2514 201.8358 15.02534044144931
Epoch: 19. Dez. 2025 • Age: 35 hours

Aktueller Status

Höhe 569.2 km
Geschwindigkeit 7.58 km/s
Subsatellitenpunkt -35.57°S, 166.58°E
Startdatum 4. Mai 2023
Alter 2.6 years
Typ internet

Technische Details

Klassifizierung Payload
Masse 305.00 kg
Trockenmasse 290.00 kg
Gesamtmasse 305.00 kg
Länge 0.20 m
Durchmesser 2.80 m
Spannweite 9.00 m
Form Box + pan
Hersteller SPXS
Bus-Typ Starlink
Phasenstatus In Orbit
Besitzer/Staat SPXS/US

Große Konstellationen

Loading constellations...